STARLINK-38056, 69760

Orbit data source: Space-Track

STARLINK-38056, 69760 is a payload satellite owned by SpaceX/Seattle (US) in SSO that was launched on Thu, 02 Jul 2026 UTC via an FALCON 9 launch vehicle from the Air Force Western Test Range (AFWTR). Payload-class satellites include a variety of spacecraft equipped with specific instruments for various scientific and technological missions. These include communications satellites like Starlink; space stations such as the ISS; scientific satellites like the Hubble; Earth observation satellites from companies like Planet Labs, Umbra, and HawkEye 360; GPS; miniature CubeSats for education and research; and military/defense satellites.

Not visible in the next 10 days
Identifier
69760, 2026-150X
Orbit
SSO
Country
Flag of USUS
Related business
Manufacturer
SpaceX/Seattle
Mission
Operational spacecraft
Bus & Motor
STARLINK V2MO, Unknown motor
Mass
575 kg wet, ~530 kg dry
Launch date (UTC)
2026-07-02 (3 weeks ago)
Launch vehicle
FALCON 9
Launch site
Air Force Western Test Range (AFWTR)
Object type
Payload
Rocket body
Debris
Shape & HBR
Unknown shape, 17.7 m
Radar Cross Section
Large (>1 m²)

Expand to show TLE details & history
Last TLE update: 17 hours ago

TLE from 17 hours ago
0 STARLINK-38056
1 69760U 26150X   26202.51393165  .00278481  00000-0  14023-2 0  9999
2 69760  97.2846  41.3085 0001980 113.3707 246.7770 15.80915261  4327
Epoch: 2026-07-21T12:20Z
TLE epoch observation values (Epoch: 2026-07-21T12:20:03.694Z)
Latitude
-0°
Longitude
-82.98943°
Altitude
331.551 km
Speed
7.709 km/s
True Right ascension
02h 45m 14s
True Declination
0° 00' 00"
Sunlit
Object was in daylight at epoch
Visualization orbit readout
Latitude
Unknown
Longitude
Unknown
Altitude
Unknown
Speed
Unknown
Apparent Right ascension
Unknown
Apparent Declination
Unknown
Sunlit
N/A
Visualization observer readout
Local Sidereal Time
18:41:50
Azimuth
Unknown
Elevation
Unknown
Doppler factor
Unknown
Orbital elements
Apogee altitude
326.058 km
Perigee altitude
323.404 km
Semi-major axis
6,702.868 km
Eccentricity
0.0002
Inclination
97.2846°
RAAN
41.3085°
Arg. of periapsis
113.3707°
True anomaly
246.75615°
Mean anomaly
246.777°
Eccentric anomaly
246.76658°
Mean motion
3.95505 °/min
Orbital period
91.02 mins
BSTAR
0.0014023
Loading maneuver chart data...
Computing Atmospheric mass density...
Loading historical data...
Loading historical data...
Loading historical data...
Loading historical data...
Loading historical data...
Loading historical data...
Loading historical data...

Documentation

Showing up to 5 results
|